SQ5DCP-1 Weather Reports


Display with metric or nautical units.
time (UTC)temp
F
wind
direction
speed
MPH
gust
MPH
rain 1hr
in
rain 24hr
in
rain mn
in
humidity
%
barometer
mb
20260502164018 73 245 1.0 3.0 0.00 0.00 0.00 33 1020.8
20260502163516 73 273 2.0 3.0 0.00 0.00 0.00 33 1020.7
20260502163034 73 270 1.0 6.0 0.00 0.00 0.00 33 1020.8
20260502162532 73 245 2.0 6.0 0.00 0.00 0.00 33 1020.8
20260502162030 74 237 1.0 6.0 0.00 0.00 0.00 32 1020.9
20260502161528 74 248 1.0 7.0 0.00 0.00 0.00 33 1021.0
20260502161027 74 248 1.0 3.0 0.00 0.00 0.00 32 1021.0
20260502160525 74 247 2.0 7.0 0.00 0.00 0.00 33 1021.1
20260502152023 74 325 1.0 3.0 0.00 0.00 0.00 31 1021.5
20260502151520 74 297 1.0 3.0 0.00 0.00 0.00 31 1021.5
20260502151018 74 281 2.0 6.0 0.00 0.00 0.00 31 1021.5
20260502150516 74 331 2.0 7.0 0.00 0.00 0.00 30 1021.5
20260502130518 73 276 4.0 8.0 0.00 0.00 0.00 33 1022.8
20260502123525 73 322 2.0 4.0 0.00 0.00 0.00 32 1023.3
20260502123022 73 284 2.0 6.0 0.00 0.00 0.00 33 1023.4
20260502122522 73 298 1.0 6.0 0.00 0.00 0.00 34 1023.4
20260502122018 72 286 2.0 7.0 0.00 0.00 0.00 34 1023.6
20260502121516 72 317 1.0 6.0 0.00 0.00 0.00 33 1023.5
20260502121034 72 3 3.0 7.0 0.00 0.00 0.00 32 1023.7
20260502120532 72 308 3.0 8.0 0.00 0.00 0.00 34 1023.7
20260502115527 71 291 5.0 10.0 0.00 0.00 0.00 34 1023.9
20260502115025 71 290 2.0 6.0 0.00 0.00 0.00 34 1023.9
20260502114524 71 117 1.0 3.0 0.00 0.00 0.00 35 1024.0
20260502114022 71 99 2.0 6.0 0.00 0.00 0.00 34 1024.0
20260502113520 71 109 2.0 7.0 0.00 0.00 0.00 34 1024.2
20260502113018 71 76 2.0 4.0 0.00 0.00 0.00 35 1024.1
20260502112535 71 326 3.0 8.0 0.00 0.00 0.00 34 1024.2
20260502112033 71 343 3.0 7.0 0.00 0.00 0.00 35 1024.1
20260502111532 71 77 1.0 3.0 0.00 0.00 0.00 35 1024.2
20260502111029 71 350 1.0 4.0 0.00 0.00 0.00 35 1024.3
20260502110527 71 317 3.0 8.0 0.00 0.00 0.00 35 1024.4
20260502110025 71 299 2.0 7.0 0.00 0.00 0.00 36 1024.3
20260502105523 71 331 4.0 8.0 0.00 0.00 0.00 35 1024.4
20260502105021 71 290 2.0 6.0 0.00 0.00 0.00 37 1024.5
20260502104519 71 230 2.0 6.0 0.00 0.00 0.00 37 1024.6
20260502104050 71 121 3.0 6.0 0.00 0.00 0.00 37 1024.6
20260502104017 71 121 3.0 6.0 0.00 0.00 0.00 37 1024.6
20260502103534 71 111 3.0 6.0 0.00 0.00 0.00 38 1024.7
20260502103032 71 152 2.0 6.0 0.00 0.00 0.00 38 1024.7
20260502102529 70 187 2.0 7.0 0.00 0.00 0.00 39 1024.7
20260502102028 70 154 3.0 8.0 0.00 0.00 0.00 40 1024.7
20260502101526 70 155 1.0 4.0 0.00 0.00 0.00 39 1024.7
20260502101024 70 24 2.0 6.0 0.00 0.00 0.00 38 1024.9
20260502100522 70 259 1.0 4.0 0.00 0.00 0.00 39 1025.0
20260502091524 68 285 2.0 8.0 0.00 0.00 0.00 42 1025.3
20260502091021 68 255 3.0 7.0 0.00 0.00 0.00 42 1025.4
20260502090520 68 225 2.0 7.0 0.00 0.00 0.00 43 1025.4
20260502071517 60 254 2.0 6.0 0.00 0.00 0.00 56 1025.8
20260502071036 59 281 2.0 7.0 0.00 0.00 0.00 57 1025.7
20260502070534 59 226 1.0 3.0 0.00 0.00 0.00 57 1025.8
20260502070031 58 283 3.0 7.0 0.00 0.00 0.00 56 1025.8
20260502065529 58 273 2.0 6.0 0.00 0.00 0.00 59 1025.8
20260502065027 57 270 1.0 4.0 0.00 0.00 0.00 61 1025.9
20260502064526 57 237 1.0 4.0 0.00 0.00 0.00 61 1025.8
20260502064024 56 269 1.0 4.0 0.00 0.00 0.00 62 1025.9
20260502063522 56 263 1.0 3.0 0.00 0.00 0.00 62 1025.9
20260502063020 55 272 1.0 3.0 0.00 0.00 0.00 63 1025.9
20260502062517 55 277 2.0 6.0 0.00 0.00 0.00 64 1025.9
20260502062050 54 277 2.0 6.0 0.00 0.00 0.00 65 1025.9
20260502062015 54 277 2.0 6.0 0.00 0.00 0.00 65 1025.9
20260502061534 53 269 1.0 4.0 0.00 0.00 0.00 66 1026.0
20260502061032 52 285 1.0 3.0 0.00 0.00 0.00 68 1025.9
20260502060530 52 224 0.0 2.0 0.00 0.00 0.00 69 1025.8
20260502060028 51 297 0.0 1.0 0.00 0.00 0.00 70 1025.9
20260502055526 51 0.0 0.0 0.00 0.00 0.00 70 1025.8
20260502055024 50 0.0 0.0 0.00 0.00 0.00 71 1025.9
20260502054523 49 276 0.0 3.0 0.00 0.00 0.00 72 1025.8
20260502054020 49 0.0 0.0 0.00 0.00 0.00 72 1025.9
20260502053518 48 280 0.0 1.0 0.00 0.00 0.00 72 1025.8
20260502053016 47 0.0 0.0 0.00 0.00 0.00 73 1025.8
20260502052535 47 0.0 0.0 0.00 0.00 0.00 73 1025.7
20260502052033 47 0.0 0.0 0.00 0.00 0.00 73 1025.7
20260502051531 46 198 0.0 1.0 0.00 0.00 0.00 73 1025.7
20260502051029 46 0.0 0.0 0.00 0.00 0.00 73 1025.8
20260502050527 45 0.0 0.0 0.00 0.00 0.00 73 1025.8
20260502050025 45 196 0.0 1.0 0.00 0.00 0.00 73 1025.8
20260502045523 45 0.0 0.0 0.00 0.00 0.00 74 1025.8
20260502045022 44 0.0 0.0 0.00 0.00 0.00 73 1025.9
20260502044519 44 0.0 0.0 0.00 0.00 0.00 72 1025.8
20260502044018 44 181 0.0 2.0 0.00 0.00 0.00 72 1025.9
20260502043536 43 161 0.0 1.0 0.00 0.00 0.00 72 1025.9
20260502043033 43 0.0 0.0 0.00 0.00 0.00 73 1025.9
20260502042531 43 0.0 0.0 0.00 0.00 0.00 73 1025.9
20260502042029 43 0.0 0.0 0.00 0.00 0.00 73 1025.8
20260502041527 43 0.0 0.0 0.00 0.00 0.00 72 1025.7
20260502041025 42 0.0 0.0 0.00 0.00 0.00 72 1025.7
20260502040523 42 0.0 0.0 0.00 0.00 0.00 72 1025.6
20260502040021 42 0.0 0.0 0.00 0.00 0.00 73 1025.6
20260502035519 42 0.0 0.0 0.00 0.00 0.00 72 1025.7
20260502035048 42 0.0 0.0 0.00 0.00 0.00 71 1025.7
20260502035017 42 0.0 0.0 0.00 0.00 0.00 71 1025.7
20260502034535 42 0.0 0.0 0.00 0.00 0.00 71 1025.6
20260502034034 42 0.0 0.0 0.00 0.00 0.00 71 1025.6
20260502033532 42 0.0 0.0 0.00 0.00 0.00 71 1025.6
20260502033030 42 0.0 0.0 0.00 0.00 0.00 70 1025.5
20260502032527 42 0.0 0.0 0.00 0.00 0.00 70 1025.6
20260502032025 42 0.0 0.0 0.00 0.00 0.00 70 1025.6
20260502031523 42 0.0 0.0 0.00 0.00 0.00 69 1025.6
20260502031022 43 0.0 0.0 0.00 0.00 0.00 69 1025.6
20260502030520 43 0.0 0.0 0.00 0.00 0.00 69 1025.7
20260502030049 43 0.0 0.0 0.00 0.00 0.00 69 1025.6
20260502030017 43 0.0 0.0 0.00 0.00 0.00 69 1025.6
20260502025535 43 0.0 0.0 0.00 0.00 0.00 69 1025.6
20260502025034 43 0.0 0.0 0.00 0.00 0.00 68 1025.5
20260502024532 43 0.0 0.0 0.00 0.00 0.00 68 1025.5
20260502024030 43 0.0 0.0 0.00 0.00 0.00 68 1025.4
20260502023528 43 0.0 0.0 0.00 0.00 0.00 68 1025.5
20260502023026 43 0.0 0.0 0.00 0.00 0.00 68 1025.5
20260502022524 44 0.0 0.0 0.00 0.00 0.00 68 1025.4
20260502022022 44 0.0 0.0 0.00 0.00 0.00 68 1025.5
20260502021521 44 0.0 0.0 0.00 0.00 0.00 68 1025.6
20260502021019 44 0.0 0.0 0.00 0.00 0.00 68 1025.6
20260502020517 44 0.0 0.0 0.00 0.00 0.00 68 1025.5
20260502020035 44 0.0 0.0 0.00 0.00 0.00 67 1025.6
20260502015533 44 0.0 0.0 0.00 0.00 0.00 67 1025.5
20260502015031 44 0.0 0.0 0.00 0.00 0.00 67 1025.5
20260502014529 45 0.0 0.0 0.00 0.00 0.00 67 1025.6
20260502014028 45 0.0 0.0 0.00 0.00 0.00 67 1025.6
20260502013525 45 0.0 0.0 0.00 0.00 0.00 67 1025.6
20260502013035 45 0.0 0.0 0.00 0.00 0.00 67 1025.6
20260502012522 45 0.0 0.0 0.00 0.00 0.00 66 1025.6
20260502012020 45 0.0 0.0 0.00 0.00 0.00 67 1025.6
20260502011518 45 0.0 0.0 0.00 0.00 0.00 67 1025.6
20260502011050 45 0.0 0.0 0.00 0.00 0.00 67 1025.6
20260502011017 45 0.0 0.0 0.00 0.00 0.00 67 1025.6
20260502010534 45 0.0 0.0 0.00 0.00 0.00 66 1025.6
20260502010033 46 0.0 0.0 0.00 0.00 0.00 66 1025.5
20260502005531 46 0.0 0.0 0.00 0.00 0.00 67 1025.6
20260502005029 46 0.0 0.0 0.00 0.00 0.00 67 1025.5
20260502004527 46 0.0 0.0 0.00 0.00 0.00 66 1025.7
20260502004025 46 0.0 0.0 0.00 0.00 0.00 66 1025.6
20260502003523 46 0.0 0.0 0.00 0.00 0.00 65 1025.6
20260502003021 46 0.0 0.0 0.00 0.00 0.00 65 1025.7
20260502002520 46 0.0 0.0 0.00 0.00 0.00 65 1025.6
20260502002049 47 0.0 0.0 0.00 0.00 0.00 65 1025.7
20260502002017 47 0.0 0.0 0.00 0.00 0.00 65 1025.7
20260502001515 47 0.0 0.0 0.00 0.00 0.00 65 1025.7
20260502001035 47 0.0 0.0 0.00 0.00 0.00 65 1025.7
20260502000532 47 0.0 0.0 0.00 0.00 0.00 65 1025.7
20260502000030 47 0.0 0.0 0.00 0.00 0.00 65 1025.8
20260501235528 47 0.0 0.0 0.00 0.00 0.00 65 1025.6
20260501235026 47 0.0 0.0 0.00 0.00 0.00 65 1025.6
20260501234524 47 0.0 0.0 0.00 0.00 0.00 65 1025.7
20260501234022 47 0.0 0.0 0.00 0.00 0.00 64 1025.8
20260501233521 48 0.0 0.0 0.00 0.00 0.00 63 1025.8
20260501233019 48 0.0 0.0 0.00 0.00 0.00 63 1025.8
20260501232517 48 0.0 0.0 0.00 0.00 0.00 63 1025.9
20260501232035 48 0.0 0.0 0.00 0.00 0.00 63 1025.8
20260501231533 48 0.0 0.0 0.00 0.00 0.00 62 1025.9
20260501231032 49 0.0 0.0 0.00 0.00 0.00 62 1025.8
20260501230529 49 0.0 0.0 0.00 0.00 0.00 62 1025.8
20260501230028 49 0.0 0.0 0.00 0.00 0.00 62 1025.8
20260501225525 49 0.0 0.0 0.00 0.00 0.00 62 1025.8
20260501225024 49 0.0 0.0 0.00 0.00 0.00 61 1025.7
20260501224521 49 0.0 0.0 0.00 0.00 0.00 61 1025.7
20260501224020 50 0.0 0.0 0.00 0.00 0.00 61 1025.7
20260501223517 50 0.0 0.0 0.00 0.00 0.00 60 1025.7
20260501223015 50 0.0 0.0 0.00 0.00 0.00 60 1025.7
20260501222534 50 0.0 0.0 0.00 0.00 0.00 60 1025.7
20260501222032 51 0.0 0.0 0.00 0.00 0.00 60 1025.7
20260501221530 51 0.0 0.0 0.00 0.00 0.00 59 1025.7
20260501221028 51 0.0 0.0 0.00 0.00 0.00 58 1025.7
20260501220526 52 0.0 0.0 0.00 0.00 0.00 58 1025.6
20260501220024 52 0.0 0.0 0.00 0.00 0.00 58 1025.7
20260501215523 52 0.0 0.0 0.00 0.00 0.00 58 1025.7
20260501215021 52 0.0 0.0 0.00 0.00 0.00 57 1025.7
20260501214519 53 0.0 0.0 0.00 0.00 0.00 57 1025.6
20260501214017 53 0.0 0.0 0.00 0.00 0.00 56 1025.7
20260501213535 53 0.0 0.0 0.00 0.00 0.00 56 1025.7
20260501213033 53 0.0 0.0 0.00 0.00 0.00 56 1025.7
20260501212532 54 0.0 0.0 0.00 0.00 0.00 55 1025.6
20260501212030 54 0.0 0.0 0.00 0.00 0.00 55 1025.4
20260501211527 54 0.0 0.0 0.00 0.00 0.00 55 1025.6
20260501211025 54 0.0 0.0 0.00 0.00 0.00 55 1025.5
20260501210523 55 101 1.0 2.0 0.00 0.00 0.00 54 1025.5
20260501210022 55 102 0.0 2.0 0.00 0.00 0.00 54 1025.5
20260501205519 55 100 1.0 2.0 0.00 0.00 0.00 53 1025.5
20260501205018 56 99 0.0 1.0 0.00 0.00 0.00 53 1025.4
20260501204516 56 99 1.0 2.0 0.00 0.00 0.00 53 1025.5
20260501204034 56 102 1.0 3.0 0.00 0.00 0.00 53 1025.5
20260501203532 56 110 0.0 1.0 0.00 0.00 0.00 52 1025.4
20260501203031 57 0.0 0.0 0.00 0.00 0.00 51 1025.4
20260501202529 57 0.0 0.0 0.00 0.00 0.00 51 1025.4
20260501202027 57 0.0 0.0 0.00 0.00 0.00 50 1025.3
20260501201525 58 0.0 0.0 0.00 0.00 0.00 50 1025.4
20260501201023 58 0.0 0.0 0.00 0.00 0.00 50 1025.3
20260501200521 58 104 0.0 1.0 0.00 0.00 0.00 49 1025.3
20260501200019 58 101 1.0 2.0 0.00 0.00 0.00 49 1025.3
20260501195517 58 104 2.0 3.0 0.00 0.00 0.00 49 1025.3
20260501195016 59 108 2.0 3.0 0.00 0.00 0.00 49 1025.3
20260501194534 59 103 1.0 3.0 0.00 0.00 0.00 49 1025.2
20260501194033 59 108 2.0 4.0 0.00 0.00 0.00 49 1025.2
20260501193530 60 115 2.0 3.0 0.00 0.00 0.00 48 1025.2
20260501193029 60 107 2.0 3.0 0.00 0.00 0.00 47 1025.1
20260501192527 60 105 1.0 2.0 0.00 0.00 0.00 46 1025.1
20260501192025 60 0.0 0.0 0.00 0.00 0.00 46 1025.0
20260501191523 60 0.0 0.0 0.00 0.00 0.00 46 1025.0
20260501191021 61 0.0 0.0 0.00 0.00 0.00 46 1025.0
20260501190519 61 71 0.0 1.0 0.00 0.00 0.00 46 1024.9
20260501190049 61 81 1.0 4.0 0.00 0.00 0.00 46 1025.0
20260501190017 61 81 1.0 4.0 0.00 0.00 0.00 46 1025.0
20260501185536 61 109 1.0 3.0 0.00 0.00 0.00 46 1024.8
20260501185048 62 101 1.0 3.0 0.00 0.00 0.00 45 1024.8
20260501185034 62 101 1.0 3.0 0.00 0.00 0.00 45 1024.8
20260501184532 62 109 1.0 4.0 0.00 0.00 0.00 44 1024.7
20260501184030 62 0.0 0.0 0.00 0.00 0.00 43 1024.7
20260501183528 63 0.0 0.0 0.00 0.00 0.00 43 1024.6
20260501183026 63 0.0 0.0 0.00 0.00 0.00 43 1024.6
20260501182524 63 353 0.0 1.0 0.00 0.00 0.00 42 1024.5
20260501182022 63 356 0.0 2.0 0.00 0.00 0.00 42 1024.5
20260501181520 63 0.0 0.0 0.00 0.00 0.00 42 1024.5
20260501181018 64 348 0.0 1.0 0.00 0.00 0.00 41 1024.5
20260501180516 64 20 0.0 2.0 0.00 0.00 0.00 41 1024.4
20260501180035 64 45 0.0 2.0 0.00 0.00 0.00 41 1024.4
20260501175533 64 0.0 0.0 0.00 0.00 0.00 41 1024.4
20260501175047 64 34 2.0 4.0 0.00 0.00 0.00 40 10.2
20260501175032 64 34 2.0 4.0 0.00 0.00 0.00 40 1024.3
20260501174529 64 13 2.0 7.0 0.00 0.00 0.00 40 1024.2
20260501174027 65 6 3.0 9.0 0.00 0.00 0.00 39 1024.2